Year,Month,Day,Hour,Minute,Value (Times are PST for temperature in C)
2006,04,17,00,00,5.90
2006,04,17,00,01,5.90
2006,04,17,00,02,5.90
2006,04,17,00,03,5.90
2006,04,17,00,04,5.90
2006,04,17,00,05,5.80
2006,04,17,00,06,5.80
2006,04,17,00,07,5.80
2006,04,17,00,08,5.80
2006,04,17,00,09,5.80
2006,04,17,00,10,5.80
2006,04,17,00,11,5.80
2006,04,17,00,12,5.80
2006,04,17,00,13,5.80
2006,04,17,00,14,5.70
2006,04,17,00,15,5.70
2006,04,17,00,16,5.70
2006,04,17,00,17,5.70
2006,04,17,00,18,5.70
2006,04,17,00,19,5.70
2006,04,17,00,20,5.70
2006,04,17,00,21,5.70
2006,04,17,00,22,5.70
2006,04,17,00,23,5.70
2006,04,17,00,24,5.60
2006,04,17,00,25,5.60
2006,04,17,00,26,5.60
2006,04,17,00,27,5.60
2006,04,17,00,28,5.50
2006,04,17,00,29,5.50
2006,04,17,00,30,5.50
2006,04,17,00,31,5.50
2006,04,17,00,32,5.40
2006,04,17,00,33,5.40
2006,04,17,00,34,5.40
2006,04,17,00,35,5.40
2006,04,17,00,36,5.30
2006,04,17,00,37,5.30
2006,04,17,00,38,5.10
2006,04,17,00,39,5.10
2006,04,17,00,40,4.90
2006,04,17,00,41,4.80
2006,04,17,00,42,4.80
2006,04,17,00,43,4.70
2006,04,17,00,44,4.60
2006,04,17,00,45,4.60
2006,04,17,00,46,4.60
2006,04,17,00,47,4.60
2006,04,17,00,48,4.60
2006,04,17,00,49,4.60
2006,04,17,00,50,4.60
2006,04,17,00,51,4.60
2006,04,17,00,52,4.60
2006,04,17,00,53,4.60
2006,04,17,00,54,4.60
2006,04,17,00,55,4.60
2006,04,17,00,56,4.60
2006,04,17,00,57,4.60
2006,04,17,00,58,4.60
2006,04,17,00,59,4.60
2006,04,17,01,00,4.60
2006,04,17,01,01,4.50
2006,04,17,01,02,4.50
2006,04,17,01,03,4.40
2006,04,17,01,04,4.40
2006,04,17,01,05,4.30
2006,04,17,01,06,4.30
2006,04,17,01,07,4.20
2006,04,17,01,08,4.20
2006,04,17,01,09,4.20
2006,04,17,01,10,4.20
2006,04,17,01,11,4.20
2006,04,17,01,12,4.20
2006,04,17,01,13,4.20
2006,04,17,01,14,4.20
2006,04,17,01,15,4.20
2006,04,17,01,16,4.20
2006,04,17,01,17,4.10
2006,04,17,01,18,4.10
2006,04,17,01,19,4.10
2006,04,17,01,20,4.10
2006,04,17,01,21,4.10
2006,04,17,01,22,4.10
2006,04,17,01,23,4.10
2006,04,17,01,24,4.10
2006,04,17,01,25,4.10
2006,04,17,01,26,4.00
2006,04,17,01,27,4.00
2006,04,17,01,28,4.00
2006,04,17,01,29,4.00
2006,04,17,01,30,3.90
2006,04,17,01,31,3.90
2006,04,17,01,32,3.90
2006,04,17,01,33,3.90
2006,04,17,01,34,3.80
2006,04,17,01,35,3.80
2006,04,17,01,36,3.80
2006,04,17,01,37,3.80
2006,04,17,01,38,3.80
2006,04,17,01,39,3.80
2006,04,17,01,40,3.80
2006,04,17,01,41,3.80
2006,04,17,01,42,3.80
2006,04,17,01,43,3.80
2006,04,17,01,44,3.80
2006,04,17,01,45,3.80
2006,04,17,01,46,3.80
2006,04,17,01,47,3.80
2006,04,17,01,48,3.80
2006,04,17,01,49,3.80
2006,04,17,01,50,3.80
2006,04,17,01,51,3.80
2006,04,17,01,52,3.70
2006,04,17,01,53,3.70
2006,04,17,01,54,3.70
2006,04,17,01,55,3.70
2006,04,17,01,56,3.60
2006,04,17,01,57,3.60
2006,04,17,01,58,3.60
2006,04,17,01,59,3.60
2006,04,17,02,00,3.50
2006,04,17,02,01,3.50
2006,04,17,02,02,3.50
2006,04,17,02,03,3.50
2006,04,17,02,04,3.40
2006,04,17,02,05,3.40
2006,04,17,02,06,3.40
2006,04,17,02,07,3.30
2006,04,17,02,08,3.30
2006,04,17,02,09,3.30
2006,04,17,02,10,3.30
2006,04,17,02,11,3.30
2006,04,17,02,12,3.40
2006,04,17,02,13,3.40
2006,04,17,02,14,3.40
2006,04,17,02,15,3.40
2006,04,17,02,16,3.50
2006,04,17,02,17,3.50
2006,04,17,02,18,3.50
2006,04,17,02,19,3.50
2006,04,17,02,20,3.50
2006,04,17,02,21,3.40
2006,04,17,02,22,3.30
2006,04,17,02,23,3.30
2006,04,17,02,24,3.30
2006,04,17,02,25,3.30
2006,04,17,02,26,3.30
2006,04,17,02,27,3.30
2006,04,17,02,28,3.20
2006,04,17,02,29,3.20
2006,04,17,02,30,3.10
2006,04,17,02,31,3.10
2006,04,17,02,32,3.10
2006,04,17,02,33,3.10
2006,04,17,02,34,3.10
2006,04,17,02,35,3.10
2006,04,17,02,36,3.10
2006,04,17,02,37,3.10
2006,04,17,02,38,3.10
2006,04,17,02,39,3.10
2006,04,17,02,40,3.10
2006,04,17,02,41,3.20
2006,04,17,02,42,3.30
2006,04,17,02,43,3.30
2006,04,17,02,44,3.30
2006,04,17,02,45,3.40
2006,04,17,02,46,3.40
2006,04,17,02,47,3.40
2006,04,17,02,48,3.40
2006,04,17,02,49,3.40
2006,04,17,02,50,3.50
2006,04,17,02,51,3.50
2006,04,17,02,52,3.50
2006,04,17,02,53,3.60
2006,04,17,02,54,3.60
2006,04,17,02,55,3.70
2006,04,17,02,56,3.70
2006,04,17,02,57,3.70
2006,04,17,02,58,3.70
2006,04,17,02,59,3.70
2006,04,17,03,00,3.70
2006,04,17,03,01,3.70
2006,04,17,03,02,3.70
2006,04,17,03,03,3.70
2006,04,17,03,04,3.60
2006,04,17,03,05,3.60
2006,04,17,03,06,3.60
2006,04,17,03,07,3.70
2006,04,17,03,08,3.70
2006,04,17,03,09,3.70
2006,04,17,03,10,3.60
2006,04,17,03,11,3.60
2006,04,17,03,12,3.60
2006,04,17,03,13,3.60
2006,04,17,03,14,3.70
2006,04,17,03,15,3.70
2006,04,17,03,16,3.70
2006,04,17,03,17,3.80
2006,04,17,03,18,3.80
2006,04,17,03,19,3.80
2006,04,17,03,20,3.80
2006,04,17,03,21,3.70
2006,04,17,03,22,3.70
2006,04,17,03,23,3.70
2006,04,17,03,24,3.70
2006,04,17,03,25,3.60
2006,04,17,03,26,3.60
2006,04,17,03,27,3.60
2006,04,17,03,28,3.60
2006,04,17,03,29,3.60
2006,04,17,03,30,3.60
2006,04,17,03,31,3.60
2006,04,17,03,32,3.50
2006,04,17,03,33,3.40
2006,04,17,03,34,3.30
2006,04,17,03,35,3.20
2006,04,17,03,36,3.10
2006,04,17,03,37,3.00
2006,04,17,03,38,2.90
2006,04,17,03,39,2.90
2006,04,17,03,40,2.90
2006,04,17,03,41,2.80
2006,04,17,03,42,2.80
2006,04,17,03,43,2.70
2006,04,17,03,44,2.70
2006,04,17,03,45,2.70
2006,04,17,03,46,2.70
2006,04,17,03,47,2.70
2006,04,17,03,48,2.70
2006,04,17,03,49,2.70
2006,04,17,03,50,2.70
2006,04,17,03,51,2.60
2006,04,17,03,52,2.60
2006,04,17,03,53,2.60
2006,04,17,03,54,2.60
2006,04,17,03,55,2.60
2006,04,17,03,56,2.60
2006,04,17,03,57,2.60
2006,04,17,03,58,2.60
2006,04,17,03,59,2.60
2006,04,17,04,00,2.60
2006,04,17,04,01,2.60
2006,04,17,04,02,2.60
2006,04,17,04,03,2.60
2006,04,17,04,04,2.60
2006,04,17,04,05,2.60
2006,04,17,04,06,2.60
2006,04,17,04,07,2.50
2006,04,17,04,08,2.50
2006,04,17,04,09,2.50
2006,04,17,04,10,2.50
2006,04,17,04,11,2.50
2006,04,17,04,12,2.50
2006,04,17,04,13,2.50
2006,04,17,04,14,2.50
2006,04,17,04,15,2.50
2006,04,17,04,16,2.40
2006,04,17,04,17,2.40
2006,04,17,04,18,2.40
2006,04,17,04,19,2.40
2006,04,17,04,20,2.40
2006,04,17,04,21,2.40
2006,04,17,04,22,2.40
2006,04,17,04,23,2.40
2006,04,17,04,24,2.40
2006,04,17,04,25,2.50
2006,04,17,04,26,2.50
2006,04,17,04,27,2.50
2006,04,17,04,28,2.50
2006,04,17,04,29,2.50
2006,04,17,04,30,2.50
2006,04,17,04,31,2.50
2006,04,17,04,32,2.50
2006,04,17,04,33,2.50
2006,04,17,04,34,2.50
2006,04,17,04,35,2.50
2006,04,17,04,36,2.50
2006,04,17,04,37,2.60
2006,04,17,04,38,2.60
2006,04,17,04,39,2.60
2006,04,17,04,40,2.60
2006,04,17,04,41,2.60
2006,04,17,04,42,2.60
2006,04,17,04,43,2.60
2006,04,17,04,44,2.60
2006,04,17,04,45,2.60
2006,04,17,04,46,2.60
2006,04,17,04,47,2.70
2006,04,17,04,48,2.70
2006,04,17,04,49,2.70
2006,04,17,04,50,2.80
2006,04,17,04,51,2.80
2006,04,17,04,52,2.90
2006,04,17,04,53,2.90
2006,04,17,04,54,2.90
2006,04,17,04,55,2.90
2006,04,17,04,56,2.90
2006,04,17,04,57,2.90
2006,04,17,04,58,2.90
2006,04,17,04,59,2.90
2006,04,17,05,00,2.80
2006,04,17,05,01,2.80
2006,04,17,05,02,2.70
2006,04,17,05,03,2.70
2006,04,17,05,04,2.70
2006,04,17,05,05,2.70
2006,04,17,05,06,2.70
2006,04,17,05,07,2.70
2006,04,17,05,08,2.80
2006,04,17,05,09,2.80
2006,04,17,05,10,2.80
2006,04,17,05,11,2.80
2006,04,17,05,12,2.70
2006,04,17,05,13,2.70
2006,04,17,05,14,2.70
2006,04,17,05,15,2.70
2006,04,17,05,16,2.70
2006,04,17,05,17,2.70
2006,04,17,05,18,2.70
2006,04,17,05,19,2.70
2006,04,17,05,20,2.70
2006,04,17,05,21,2.70
2006,04,17,05,22,2.60
2006,04,17,05,23,2.70
2006,04,17,05,24,2.70
2006,04,17,05,25,2.60
2006,04,17,05,26,2.60
2006,04,17,05,27,2.60
2006,04,17,05,28,2.60
2006,04,17,05,29,2.60
2006,04,17,05,30,2.60
2006,04,17,05,31,2.70
2006,04,17,05,32,2.70
2006,04,17,05,33,2.70
2006,04,17,05,34,2.70
2006,04,17,05,35,2.70
2006,04,17,05,36,2.70
2006,04,17,05,37,2.70
2006,04,17,05,38,2.80
2006,04,17,05,39,2.90
2006,04,17,05,40,3.00
2006,04,17,05,41,3.10
2006,04,17,05,42,3.20
2006,04,17,05,43,3.20
2006,04,17,05,44,3.20
2006,04,17,05,45,3.10
2006,04,17,05,46,3.10
2006,04,17,05,47,3.00
2006,04,17,05,48,2.90
2006,04,17,05,49,2.90
2006,04,17,05,50,2.80
2006,04,17,05,51,2.70
2006,04,17,05,52,2.70
2006,04,17,05,53,2.60
2006,04,17,05,54,2.50
2006,04,17,05,55,2.50
2006,04,17,05,56,2.50
2006,04,17,05,57,2.50
2006,04,17,05,58,2.50
2006,04,17,05,59,2.50
2006,04,17,06,00,2.50
2006,04,17,06,01,2.50
2006,04,17,06,02,2.50
2006,04,17,06,03,2.50
2006,04,17,06,04,2.60
2006,04,17,06,05,2.70
2006,04,17,06,06,2.80
2006,04,17,06,07,2.80
2006,04,17,06,08,2.90
2006,04,17,06,09,2.90
2006,04,17,06,10,2.90
2006,04,17,06,11,2.90
2006,04,17,06,12,2.80
2006,04,17,06,13,2.80
2006,04,17,06,14,2.80
2006,04,17,06,15,2.70
2006,04,17,06,16,2.70
2006,04,17,06,17,2.70
2006,04,17,06,18,2.70
2006,04,17,06,19,2.70
2006,04,17,06,20,2.70
2006,04,17,06,21,2.70
2006,04,17,06,22,2.70
2006,04,17,06,23,2.70
2006,04,17,06,24,2.80
2006,04,17,06,25,2.90
2006,04,17,06,26,3.00
2006,04,17,06,27,3.10
2006,04,17,06,28,3.20
2006,04,17,06,29,3.30
2006,04,17,06,30,3.30
2006,04,17,06,31,3.50
2006,04,17,06,32,3.50
2006,04,17,06,33,3.60
2006,04,17,06,34,3.60
2006,04,17,06,35,3.70
2006,04,17,06,36,3.70
2006,04,17,06,37,3.60
2006,04,17,06,38,3.60
2006,04,17,06,39,3.60
2006,04,17,06,40,3.60
2006,04,17,06,41,3.60
2006,04,17,06,42,3.60
2006,04,17,06,43,3.60
2006,04,17,06,44,3.70
2006,04,17,06,45,3.70
2006,04,17,06,46,3.60
2006,04,17,06,47,3.60
2006,04,17,06,48,3.60
2006,04,17,06,49,3.60
2006,04,17,06,50,3.60
2006,04,17,06,51,3.60
2006,04,17,06,52,3.70
2006,04,17,06,53,3.70
2006,04,17,06,54,3.80
2006,04,17,06,55,3.80
2006,04,17,06,56,3.80
2006,04,17,06,57,3.80
2006,04,17,06,58,3.90
2006,04,17,06,59,3.90
2006,04,17,07,00,3.90
2006,04,17,07,01,4.00
2006,04,17,07,02,4.00
2006,04,17,07,03,4.00
2006,04,17,07,04,4.10
2006,04,17,07,05,4.10
2006,04,17,07,06,4.20
2006,04,17,07,07,4.20
2006,04,17,07,08,4.20
2006,04,17,07,09,4.20
2006,04,17,07,10,4.20
2006,04,17,07,11,4.20
2006,04,17,07,12,4.20
2006,04,17,07,13,4.20
2006,04,17,07,14,4.20
2006,04,17,07,15,4.20
2006,04,17,07,16,4.20
2006,04,17,07,17,4.20
2006,04,17,07,18,4.30
2006,04,17,07,19,4.30
2006,04,17,07,20,4.40
2006,04,17,07,21,4.40
2006,04,17,07,22,4.50
2006,04,17,07,23,4.50
2006,04,17,07,24,4.50
2006,04,17,07,25,4.60
2006,04,17,07,26,4.60
2006,04,17,07,27,4.60
2006,04,17,07,28,4.60
2006,04,17,07,29,4.70
2006,04,17,07,30,4.70
2006,04,17,07,31,4.70
2006,04,17,07,32,4.80
2006,04,17,07,33,4.80
2006,04,17,07,34,4.80
2006,04,17,07,35,4.90
2006,04,17,07,36,4.90
2006,04,17,07,37,4.90
2006,04,17,07,38,4.90
2006,04,17,07,39,4.90
2006,04,17,07,40,5.00
2006,04,17,07,41,5.10
2006,04,17,07,42,5.10
2006,04,17,07,43,5.10
2006,04,17,07,44,5.10
2006,04,17,07,45,5.10
2006,04,17,07,46,5.20
2006,04,17,07,47,5.20
2006,04,17,07,48,5.20
2006,04,17,07,49,5.30
2006,04,17,07,50,5.30
2006,04,17,07,51,5.30
2006,04,17,07,52,5.30
2006,04,17,07,53,5.30
2006,04,17,07,54,5.40
2006,04,17,07,55,5.50
2006,04,17,07,56,5.60
2006,04,17,07,57,5.70
2006,04,17,07,58,5.80
2006,04,17,07,59,5.90
2006,04,17,08,00,6.00
2006,04,17,08,01,6.10
2006,04,17,08,02,6.20
2006,04,17,08,03,6.30
2006,04,17,08,04,6.30
2006,04,17,08,05,6.40
2006,04,17,08,06,6.40
2006,04,17,08,07,6.40
2006,04,17,08,08,6.40
2006,04,17,08,09,6.50
2006,04,17,08,10,6.60
2006,04,17,08,11,6.60
2006,04,17,08,12,6.60
2006,04,17,08,13,6.60
2006,04,17,08,14,6.60
2006,04,17,08,15,6.60
2006,04,17,08,16,6.60
2006,04,17,08,17,6.60
2006,04,17,08,18,6.70
2006,04,17,08,19,6.70
2006,04,17,08,20,6.70
2006,04,17,08,21,6.70
2006,04,17,08,22,6.70
2006,04,17,08,23,6.70
2006,04,17,08,24,6.70
2006,04,17,08,25,6.70
2006,04,17,08,26,6.80
2006,04,17,08,27,6.80
2006,04,17,08,28,6.80
2006,04,17,08,29,6.80
2006,04,17,08,30,6.80
2006,04,17,08,31,6.80
2006,04,17,08,32,6.80
2006,04,17,08,33,6.90
2006,04,17,08,34,6.90
2006,04,17,08,35,6.90
2006,04,17,08,36,7.00
2006,04,17,08,37,7.00
2006,04,17,08,38,7.00
2006,04,17,08,39,7.00
2006,04,17,08,40,7.10
2006,04,17,08,41,7.10
2006,04,17,08,42,7.20
2006,04,17,08,43,7.30
2006,04,17,08,44,7.30
2006,04,17,08,45,7.30
2006,04,17,08,46,7.30
2006,04,17,08,47,7.40
2006,04,17,08,48,7.40
2006,04,17,08,49,7.50
2006,04,17,08,50,7.50
2006,04,17,08,51,7.60
2006,04,17,08,52,7.60
2006,04,17,08,53,7.60
2006,04,17,08,54,7.60
2006,04,17,08,55,7.70
2006,04,17,08,56,7.60
2006,04,17,08,57,7.70
2006,04,17,08,58,7.60
2006,04,17,08,59,7.60
2006,04,17,09,00,7.60
2006,04,17,09,01,7.70
2006,04,17,09,02,7.70
2006,04,17,09,03,7.80
2006,04,17,09,04,7.80
2006,04,17,09,05,7.80
2006,04,17,09,06,7.80
2006,04,17,09,07,7.80
2006,04,17,09,08,7.80
2006,04,17,09,09,7.80
2006,04,17,09,10,7.80
2006,04,17,09,11,7.80
2006,04,17,09,12,7.80
2006,04,17,09,13,7.80
2006,04,17,09,14,7.80
2006,04,17,09,15,7.80
2006,04,17,09,16,7.80
2006,04,17,09,17,7.80
2006,04,17,09,18,7.80
2006,04,17,09,19,7.90
2006,04,17,09,20,7.90
2006,04,17,09,21,8.00
2006,04,17,09,22,8.10
2006,04,17,09,23,8.00
2006,04,17,09,24,7.90
2006,04,17,09,25,7.90
2006,04,17,09,26,7.90
2006,04,17,09,27,7.90
2006,04,17,09,28,8.00
2006,04,17,09,29,8.10
2006,04,17,09,30,8.10
2006,04,17,09,31,8.20
2006,04,17,09,32,8.20
2006,04,17,09,33,8.20
2006,04,17,09,34,8.20
2006,04,17,09,35,8.20
2006,04,17,09,36,8.20
2006,04,17,09,37,8.30
2006,04,17,09,38,8.50
2006,04,17,09,39,8.50
2006,04,17,09,40,8.40
2006,04,17,09,41,8.30
2006,04,17,09,42,8.20
2006,04,17,09,43,8.10
2006,04,17,09,44,8.10
2006,04,17,09,45,8.10
2006,04,17,09,46,8.10
2006,04,17,09,47,8.20
2006,04,17,09,48,8.30
2006,04,17,09,49,8.30
2006,04,17,09,50,8.40
2006,04,17,09,51,8.40
2006,04,17,09,52,8.40
2006,04,17,09,53,8.50
2006,04,17,09,54,8.50
2006,04,17,09,55,8.60
2006,04,17,09,56,8.70
2006,04,17,09,57,8.70
2006,04,17,09,58,8.70
2006,04,17,09,59,8.80
2006,04,17,10,00,8.90
2006,04,17,10,01,8.90
2006,04,17,10,02,9.00
2006,04,17,10,03,8.90
2006,04,17,10,04,8.80
2006,04,17,10,05,8.70
2006,04,17,10,06,8.70
2006,04,17,10,07,8.60
2006,04,17,10,08,8.50
2006,04,17,10,09,8.30
2006,04,17,10,10,8.20
2006,04,17,10,11,8.20
2006,04,17,10,12,8.20
2006,04,17,10,13,8.20
2006,04,17,10,14,8.20
2006,04,17,10,15,8.20
2006,04,17,10,16,8.30
2006,04,17,10,17,8.40
2006,04,17,10,18,8.40
2006,04,17,10,19,8.20
2006,04,17,10,20,8.20
2006,04,17,10,21,8.30
2006,04,17,10,22,8.30
2006,04,17,10,23,8.40
2006,04,17,10,24,8.30
2006,04,17,10,25,8.40
2006,04,17,10,26,8.40
2006,04,17,10,27,8.30
2006,04,17,10,28,8.30
2006,04,17,10,29,8.30
2006,04,17,10,30,8.30
2006,04,17,10,31,8.30
2006,04,17,10,32,8.30
2006,04,17,10,33,8.30
2006,04,17,10,34,8.30
2006,04,17,10,35,8.20
2006,04,17,10,36,8.20
2006,04,17,10,37,8.20
2006,04,17,10,38,8.20
2006,04,17,10,39,8.30
2006,04,17,10,40,8.20
2006,04,17,10,41,8.10
2006,04,17,10,42,8.00
2006,04,17,10,43,8.00
2006,04,17,10,44,8.00
2006,04,17,10,45,7.90
2006,04,17,10,46,7.90
2006,04,17,10,47,7.90
2006,04,17,10,48,8.00
2006,04,17,10,49,8.00
2006,04,17,10,50,8.00
2006,04,17,10,51,8.10
2006,04,17,10,52,8.20
2006,04,17,10,53,8.20
2006,04,17,10,54,8.30
2006,04,17,10,55,8.20
2006,04,17,10,56,8.20
2006,04,17,10,57,8.30
2006,04,17,10,58,8.40
2006,04,17,10,59,8.50
2006,04,17,11,00,8.50
2006,04,17,11,01,8.60
2006,04,17,11,02,8.70
2006,04,17,11,03,8.80
2006,04,17,11,04,8.90
2006,04,17,11,05,8.70
2006,04,17,11,06,8.70
2006,04,17,11,07,8.70
2006,04,17,11,08,8.70
2006,04,17,11,09,8.70
2006,04,17,11,10,8.70
2006,04,17,11,11,8.70
2006,04,17,11,12,8.70
2006,04,17,11,13,8.60
2006,04,17,11,14,8.40
2006,04,17,11,15,8.40
2006,04,17,11,16,8.40
2006,04,17,11,17,8.50
2006,04,17,11,18,8.50
2006,04,17,11,19,8.50
2006,04,17,11,20,8.50
2006,04,17,11,21,8.60
2006,04,17,11,22,8.70
2006,04,17,11,23,8.60
2006,04,17,11,24,8.50
2006,04,17,11,25,8.50
2006,04,17,11,26,8.60
2006,04,17,11,27,8.70
2006,04,17,11,28,8.70
2006,04,17,11,29,8.90
2006,04,17,11,30,8.90
2006,04,17,11,31,8.90
2006,04,17,11,32,8.90
2006,04,17,11,33,9.00
2006,04,17,11,34,9.00
2006,04,17,11,35,9.00
2006,04,17,11,36,9.00
2006,04,17,11,37,8.90
2006,04,17,11,38,8.90
2006,04,17,11,39,8.80
2006,04,17,11,40,8.90
2006,04,17,11,41,9.00
2006,04,17,11,42,9.10
2006,04,17,11,43,9.20
2006,04,17,11,44,9.30
2006,04,17,11,45,9.30
2006,04,17,11,46,9.30
2006,04,17,11,47,9.10
2006,04,17,11,48,9.00
2006,04,17,11,49,9.00
2006,04,17,11,50,9.00
2006,04,17,11,51,9.00
2006,04,17,11,52,9.00
2006,04,17,11,53,9.20
2006,04,17,11,54,9.30
2006,04,17,11,55,9.30
2006,04,17,11,56,9.40
2006,04,17,11,57,9.50
2006,04,17,11,58,9.70
2006,04,17,11,59,9.60
2006,04,17,12,00,9.70
2006,04,17,12,01,9.60
2006,04,17,12,02,9.50
2006,04,17,12,03,9.40
2006,04,17,12,04,9.40
2006,04,17,12,05,9.50
2006,04,17,12,06,9.50
2006,04,17,12,07,9.60
2006,04,17,12,08,9.50
2006,04,17,12,09,9.50
2006,04,17,12,10,9.60
2006,04,17,12,11,9.60
2006,04,17,12,12,9.70
2006,04,17,12,13,9.70
2006,04,17,12,14,9.70
2006,04,17,12,15,9.70
2006,04,17,12,16,9.70
2006,04,17,12,17,9.70
2006,04,17,12,18,9.70
2006,04,17,12,19,9.80
2006,04,17,12,20,9.90
2006,04,17,12,21,9.90
2006,04,17,12,22,9.70
2006,04,17,12,23,9.70
2006,04,17,12,24,9.70
2006,04,17,12,25,9.80
2006,04,17,12,26,9.90
2006,04,17,12,27,9.80
2006,04,17,12,28,9.70
2006,04,17,12,29,9.70
2006,04,17,12,30,9.70
2006,04,17,12,31,9.70
2006,04,17,12,32,9.70
2006,04,17,12,33,9.70
2006,04,17,12,34,9.70
2006,04,17,12,35,9.70
2006,04,17,12,36,9.80
2006,04,17,12,37,9.90
2006,04,17,12,38,9.90
2006,04,17,12,39,9.90
2006,04,17,12,40,9.90
2006,04,17,12,41,10.00
2006,04,17,12,42,10.10
2006,04,17,12,43,10.10
2006,04,17,12,44,10.10
2006,04,17,12,45,10.10
2006,04,17,12,46,10.10
2006,04,17,12,47,10.10
2006,04,17,12,48,10.20
2006,04,17,12,49,10.30
2006,04,17,12,50,10.40
2006,04,17,12,51,10.40
2006,04,17,12,52,10.50
2006,04,17,12,53,10.60
2006,04,17,12,54,10.80
2006,04,17,12,55,10.70
2006,04,17,12,56,10.60
2006,04,17,12,57,10.60
2006,04,17,12,58,10.60
2006,04,17,12,59,10.70
2006,04,17,13,00,10.80
2006,04,17,13,01,10.80
2006,04,17,13,02,10.90
2006,04,17,13,03,10.90
2006,04,17,13,04,10.80
2006,04,17,13,05,10.80
2006,04,17,13,06,10.90
2006,04,17,13,07,10.70
2006,04,17,13,08,10.60
2006,04,17,13,09,10.40
2006,04,17,13,10,10.30
2006,04,17,13,11,10.40
2006,04,17,13,12,10.60
2006,04,17,13,13,10.60
2006,04,17,13,14,10.50
2006,04,17,13,15,10.40
2006,04,17,13,16,10.30
2006,04,17,13,17,10.30
2006,04,17,13,18,10.40
2006,04,17,13,19,10.40
2006,04,17,13,20,10.60
2006,04,17,13,21,10.60
2006,04,17,13,22,10.60
2006,04,17,13,23,10.60
2006,04,17,13,24,10.60
2006,04,17,13,25,10.50
2006,04,17,13,26,10.40
2006,04,17,13,27,10.60
2006,04,17,13,28,10.60
2006,04,17,13,29,10.60
2006,04,17,13,30,10.60
2006,04,17,13,31,10.40
2006,04,17,13,32,10.30
2006,04,17,13,33,10.20
2006,04,17,13,34,10.10
2006,04,17,13,35,10.00
2006,04,17,13,36,9.90
2006,04,17,13,37,9.90
2006,04,17,13,38,10.10
2006,04,17,13,39,10.10
2006,04,17,13,40,10.00
2006,04,17,13,41,10.00
2006,04,17,13,42,10.10
2006,04,17,13,43,10.20
2006,04,17,13,44,10.30
2006,04,17,13,45,10.30
2006,04,17,13,46,10.40
2006,04,17,13,47,10.40
2006,04,17,13,48,10.40
2006,04,17,13,49,10.40
2006,04,17,13,50,10.40
2006,04,17,13,51,10.40
2006,04,17,13,52,10.40
2006,04,17,13,53,10.40
2006,04,17,13,54,10.30
2006,04,17,13,55,10.30
2006,04,17,13,56,10.40
2006,04,17,13,57,10.40
2006,04,17,13,58,10.50
2006,04,17,13,59,10.50
2006,04,17,14,00,10.50
2006,04,17,14,01,10.70
2006,04,17,14,02,10.90
2006,04,17,14,03,10.90
2006,04,17,14,04,10.90
2006,04,17,14,05,10.90
2006,04,17,14,06,10.90
2006,04,17,14,07,10.90
2006,04,17,14,08,10.90
2006,04,17,14,09,10.90
2006,04,17,14,10,10.90
2006,04,17,14,11,10.90
2006,04,17,14,12,10.90
2006,04,17,14,13,11.00
2006,04,17,14,14,11.10
2006,04,17,14,15,11.30
2006,04,17,14,16,11.30
2006,04,17,14,17,11.40
2006,04,17,14,18,11.30
2006,04,17,14,19,11.30
2006,04,17,14,20,11.30
2006,04,17,14,21,11.30
2006,04,17,14,22,11.20
2006,04,17,14,23,11.30
2006,04,17,14,24,11.50
2006,04,17,14,25,11.60
2006,04,17,14,26,11.50
2006,04,17,14,27,11.40
2006,04,17,14,28,11.30
2006,04,17,14,29,11.20
2006,04,17,14,30,11.20
2006,04,17,14,31,11.10
2006,04,17,14,32,11.10
2006,04,17,14,33,10.90
2006,04,17,14,34,10.80
2006,04,17,14,35,10.70
2006,04,17,14,36,10.60
2006,04,17,14,37,10.70
2006,04,17,14,38,10.60
2006,04,17,14,39,10.60
2006,04,17,14,40,10.70
2006,04,17,14,41,10.90
2006,04,17,14,42,11.10
2006,04,17,14,43,11.30
2006,04,17,14,44,11.60
2006,04,17,14,45,11.80
2006,04,17,14,46,11.90
2006,04,17,14,47,11.90
2006,04,17,14,48,12.00
2006,04,17,14,49,12.00
2006,04,17,14,50,12.20
2006,04,17,14,51,12.20
2006,04,17,14,52,12.00
2006,04,17,14,53,11.80
2006,04,17,14,54,11.70
2006,04,17,14,55,11.60
2006,04,17,14,56,11.50
2006,04,17,14,57,11.30
2006,04,17,14,58,11.30
2006,04,17,14,59,11.20
2006,04,17,15,00,11.20
2006,04,17,15,01,11.20
2006,04,17,15,02,11.40
2006,04,17,15,03,11.40
2006,04,17,15,04,11.50
2006,04,17,15,05,11.50
2006,04,17,15,06,11.50
2006,04,17,15,07,11.30
2006,04,17,15,08,11.00
2006,04,17,15,09,10.90
2006,04,17,15,10,11.00
2006,04,17,15,11,10.90
2006,04,17,15,12,10.80
2006,04,17,15,13,10.60
2006,04,17,15,14,10.60
2006,04,17,15,15,10.70
2006,04,17,15,16,10.90
2006,04,17,15,17,10.90
2006,04,17,15,18,11.10
2006,04,17,15,19,11.30
2006,04,17,15,20,11.40
2006,04,17,15,21,11.60
2006,04,17,15,22,11.60
2006,04,17,15,23,11.60
2006,04,17,15,24,11.70
2006,04,17,15,25,11.70
2006,04,17,15,26,11.60
2006,04,17,15,27,11.40
2006,04,17,15,28,11.50
2006,04,17,15,29,11.60
2006,04,17,15,30,11.70
2006,04,17,15,31,11.70
2006,04,17,15,32,11.60
2006,04,17,15,33,11.40
2006,04,17,15,34,11.40
2006,04,17,15,35,11.40
2006,04,17,15,36,11.50
2006,04,17,15,37,11.70
2006,04,17,15,38,11.80
2006,04,17,15,39,11.70
2006,04,17,15,40,11.60
2006,04,17,15,41,11.70
2006,04,17,15,42,11.80
2006,04,17,15,43,11.60
2006,04,17,15,44,11.60
2006,04,17,15,45,11.50
2006,04,17,15,46,11.40
2006,04,17,15,47,11.40
2006,04,17,15,48,11.30
2006,04,17,15,49,11.40
2006,04,17,15,50,11.50
2006,04,17,15,51,11.70
2006,04,17,15,52,11.80
2006,04,17,15,53,11.80
2006,04,17,15,54,11.90
2006,04,17,15,55,11.90
2006,04,17,15,56,11.90
2006,04,17,15,57,11.90
2006,04,17,15,58,12.00
2006,04,17,15,59,12.00
2006,04,17,16,00,11.90
2006,04,17,16,01,11.80
2006,04,17,16,02,11.80
2006,04,17,16,03,11.80
2006,04,17,16,04,11.80
2006,04,17,16,05,11.90
2006,04,17,16,06,12.00
2006,04,17,16,07,12.10
2006,04,17,16,08,12.20
2006,04,17,16,09,12.30
2006,04,17,16,10,12.30
2006,04,17,16,11,12.40
2006,04,17,16,12,12.40
2006,04,17,16,13,12.40
2006,04,17,16,14,12.40
2006,04,17,16,15,12.30
2006,04,17,16,16,12.10
2006,04,17,16,17,12.20
2006,04,17,16,18,12.40
2006,04,17,16,19,12.60
2006,04,17,16,20,12.60
2006,04,17,16,21,12.40
2006,04,17,16,22,12.30
2006,04,17,16,23,12.30
2006,04,17,16,24,12.30
2006,04,17,16,25,12.30
2006,04,17,16,26,12.30
2006,04,17,16,27,12.30
2006,04,17,16,28,12.30
2006,04,17,16,29,12.30
2006,04,17,16,30,12.40
2006,04,17,16,31,12.40
2006,04,17,16,32,12.40
2006,04,17,16,33,12.40
2006,04,17,16,34,12.40
2006,04,17,16,35,12.20
2006,04,17,16,36,12.00
2006,04,17,16,37,11.80
2006,04,17,16,38,11.90
2006,04,17,16,39,12.00
2006,04,17,16,40,12.10
2006,04,17,16,41,12.10
2006,04,17,16,42,12.10
2006,04,17,16,43,11.90
2006,04,17,16,44,11.80
2006,04,17,16,45,11.50
2006,04,17,16,46,11.30
2006,04,17,16,47,11.20
2006,04,17,16,48,11.20
2006,04,17,16,49,11.20
2006,04,17,16,50,11.30
2006,04,17,16,51,11.20
2006,04,17,16,52,11.10
2006,04,17,16,53,11.00
2006,04,17,16,54,10.90
2006,04,17,16,55,10.90
2006,04,17,16,56,10.80
2006,04,17,16,57,10.80
2006,04,17,16,58,10.90
2006,04,17,16,59,10.80
2006,04,17,17,00,10.80
2006,04,17,17,01,10.80
2006,04,17,17,02,10.90
2006,04,17,17,03,10.90
2006,04,17,17,04,10.80
2006,04,17,17,05,10.80
2006,04,17,17,06,10.80
2006,04,17,17,07,10.70
2006,04,17,17,08,10.70
2006,04,17,17,09,10.70
2006,04,17,17,10,10.60
2006,04,17,17,11,10.60
2006,04,17,17,12,10.60
2006,04,17,17,13,10.60
2006,04,17,17,14,10.70
2006,04,17,17,15,10.70
2006,04,17,17,16,10.70
2006,04,17,17,17,10.70
2006,04,17,17,18,10.60
2006,04,17,17,19,10.60
2006,04,17,17,20,10.60
2006,04,17,17,21,10.70
2006,04,17,17,22,10.70
2006,04,17,17,23,10.70
2006,04,17,17,24,10.70
2006,04,17,17,25,10.70
2006,04,17,17,26,10.80
2006,04,17,17,27,10.80
2006,04,17,17,28,10.70
2006,04,17,17,29,10.70
2006,04,17,17,30,10.70
2006,04,17,17,31,10.80
2006,04,17,17,32,10.80
2006,04,17,17,33,10.80
2006,04,17,17,34,10.90
2006,04,17,17,35,10.90
2006,04,17,17,36,10.90
2006,04,17,17,37,10.90
2006,04,17,17,38,10.90
2006,04,17,17,39,10.90
2006,04,17,17,40,10.90
2006,04,17,17,41,11.00
2006,04,17,17,42,11.10
2006,04,17,17,43,11.10
2006,04,17,17,44,11.20
2006,04,17,17,45,11.20
2006,04,17,17,46,11.40
2006,04,17,17,47,11.30
2006,04,17,17,48,11.30
2006,04,17,17,49,11.30
2006,04,17,17,50,11.40
2006,04,17,17,51,11.40
2006,04,17,17,52,11.40